Location: Lafig�re
(44.4503°N, 4.0357°E)
Time: 06:22:18
(UTC+00:00)

Vanguard 2 - Pass Details

Date: 29 January 2021
Orbit: 552 x 2938 km, 32.9° (Epoch: 01 March)

Event Time Altitude Azimuth Distance (km) Brightness Sun altitude
Rises 18:09:28 0° 249° (WSW) 2,717 12.1 -14.5°
Reaches altitude 10° 18:12:44 10° 218° (SW) 1,911 10.3 -15.0°
Maximum altitude 18:14:37 13° 191° (SSW) 1,833 9.7 -15.4°
Drops below altitude 10° 18:16:41 10° 165° (SSE) 2,142 9.8 -15.7°
Enters shadow 18:20:10 - 141° (SE) 3,184 10.4 -16.4°
